• In Hungary
  • List of Countries
  • For 7 days
  • Water Temperature
  • Satellite Maps
  • Weather Map
  • News
  • Weather Widgets
  • user-avatar
    Login

    Hourly Weather Glinki

    Today, 21 August, Tuesday

    Time Temperature Precipitation Wind Pressure Humidity
    00:00 +18°C° 0 mm 2 mps 744 mmHg 79%
    01:00 +18°C° 0 mm 3 mps 744 mmHg 80%
    02:00 +18°C° 0 mm 3 mps 744 mmHg 81%
    03:00 +18°C° 0 mm 3 mps 744 mmHg 82%
    04:00 +18°C° 0 mm 3 mps 744 mmHg 83%
    05:00 +18°C° 0 mm 3 mps 743 mmHg 85%
    06:00 +18°C° 0 mm 4 mps 743 mmHg 86%
    07:00 +20°C° 0 mm 5 mps 743 mmHg 79%
    08:00 +21°C° 0 mm 6 mps 742 mmHg 72%
    09:00 +23°C° 0 mm 7 mps 742 mmHg 65%
    10:00 +24°C° 0 mm 7 mps 742 mmHg 61%
    11:00 +27°C° 0 mm 8 mps 741 mmHg 57%
    12:00 +28°C° 0 mm 8 mps 741 mmHg 53%
    13:00 +27°C° 0.6 mm 8 mps 741 mmHg 56%
    14:00 +27°C° 0.6 mm 8 mps 740 mmHg 59%
    15:00 +27°C° 0.6 mm 8 mps 740 mmHg 62%
    16:00 +24°C° 1.6 mm 7 mps 740 mmHg 68%
    17:00 +23°C° 1.6 mm 7 mps 740 mmHg 75%
    18:00 +21°C° 1.6 mm 6 mps 739 mmHg 81%
    19:00 +20°C° 0.5 mm 5 mps 740 mmHg 83%
    20:00 +19°C° 0.5 mm 5 mps 740 mmHg 85%
    21:00 +18°C° 0.5 mm 4 mps 740 mmHg 87%
    22:00 +17°C° 0 mm 4 mps 741 mmHg 87%
    23:00 +15°C° 0 mm 4 mps 741 mmHg 86%

    Tomorrow, 22 August, Wednesday

    Time Temperature Precipitation Wind Pressure Humidity
    00:00 +14°C° 0 mm 4 mps 741 mmHg 86%
    01:00 +13°C° 0 mm 4 mps 742 mmHg 86%
    02:00 +12°C° 0 mm 4 mps 742 mmHg 87%
    03:00 +12°C° 0 mm 3 mps 743 mmHg 88%
    04:00 +11°C° 0 mm 3 mps 743 mmHg 88%
    05:00 +11°C° 0 mm 3 mps 743 mmHg 88%
    06:00 +11°C° 0 mm 3 mps 744 mmHg 88%
    07:00 +12°C° 0 mm 4 mps 744 mmHg 81%
    08:00 +13°C° 0 mm 5 mps 744 mmHg 74%
    09:00 +15°C° 0 mm 6 mps 744 mmHg 67%
    10:00 +16°C° 0 mm 6 mps 745 mmHg 62%
    11:00 +17°C° 0 mm 6 mps 745 mmHg 57%
    12:00 +19°C° 0 mm 6 mps 745 mmHg 53%
    13:00 +19°C° 0 mm 6 mps 746 mmHg 51%
    14:00 +20°C° 0 mm 6 mps 746 mmHg 50%
    15:00 +20°C° 0 mm 6 mps 746 mmHg 49%
    16:00 +20°C° 0 mm 5 mps 746 mmHg 52%
    17:00 +19°C° 0 mm 4 mps 747 mmHg 55%
    18:00 +19°C° 0 mm 4 mps 747 mmHg 59%
    19:00 +17°C° 0 mm 3 mps 747 mmHg 62%
    20:00 +16°C° 0 mm 3 mps 748 mmHg 65%
    21:00 +13°C° 0 mm 3 mps 748 mmHg 68%
    22:00 +12°C° 0 mm 3 mps 749 mmHg 70%
    23:00 +12°C° 0 mm 3 mps 749 mmHg 72%

    Day after tomorrow, 23 August, Thursday

    Time Temperature Precipitation Wind Pressure Humidity
    00:00 +11°C° 0 mm 3 mps 750 mmHg 73%
    01:00 +10°C° 0 mm 3 mps 750 mmHg 74%
    02:00 +10°C° 0 mm 3 mps 750 mmHg 75%
    03:00 +9°C° 0 mm 2 mps 750 mmHg 76%
    04:00 +9°C° 0 mm 2 mps 751 mmHg 78%
    05:00 +9°C° 0 mm 2 mps 751 mmHg 79%
    06:00 +9°C° 0 mm 2 mps 751 mmHg 80%
    07:00 +12°C° 0 mm 2 mps 752 mmHg 74%
    08:00 +14°C° 0 mm 2 mps 752 mmHg 67%
    09:00 +16°C° 0 mm 2 mps 752 mmHg 61%
    10:00 +17°C° 0 mm 2 mps 752 mmHg 56%
    11:00 +18°C° 0 mm 2 mps 752 mmHg 50%
    12:00 +19°C° 0 mm 2 mps 752 mmHg 45%
    13:00 +20°C° 0 mm 2 mps 752 mmHg 43%
    14:00 +20°C° 0 mm 2 mps 752 mmHg 42%
    15:00 +20°C° 0 mm 2 mps 752 mmHg 41%
    16:00 +20°C° 0 mm 2 mps 751 mmHg 45%
    17:00 +20°C° 0 mm 2 mps 751 mmHg 48%
    18:00 +21°C° 0 mm 1 mps 751 mmHg 52%
    19:00 +19°C° 0 mm 1 mps 751 mmHg 55%
    20:00 +16°C° 0 mm 1 mps 751 mmHg 58%
    21:00 +14°C° 0 mm 1 mps 751 mmHg 61%
    22:00 +14°C° 0 mm 1 mps 751 mmHg 62%
    23:00 +13°C° 0 mm 1 mps 752 mmHg 64%

    24 August, Friday

    Time Temperature Precipitation Wind Pressure Humidity
    00:00 +13°C° 0 mm 1 mps 752 mmHg 65%
    01:00 +13°C° 0 mm 1 mps 752 mmHg 67%
    02:00 +12°C° 0 mm 1 mps 752 mmHg 68%
    03:00 +12°C° 0 mm 1 mps 752 mmHg 70%
    04:00 +12°C° 0 mm 1 mps 752 mmHg 71%
    05:00 +12°C° 0 mm 1 mps 752 mmHg 72%
    06:00 +12°C° 0 mm 1 mps 752 mmHg 74%
    07:00 +14°C° 0 mm 1 mps 752 mmHg 68%
    08:00 +16°C° 0 mm 1 mps 752 mmHg 62%
    09:00 +18°C° 0 mm 2 mps 752 mmHg 57%
    10:00 +19°C° 0 mm 2 mps 752 mmHg 53%
    11:00 +20°C° 0 mm 2 mps 751 mmHg 49%
    12:00 +21°C° 0 mm 2 mps 751 mmHg 45%
    13:00 +23°C° 0 mm 2 mps 751 mmHg 44%
    14:00 +23°C° 0 mm 2 mps 751 mmHg 43%
    15:00 +24°C° 0 mm 2 mps 750 mmHg 42%
    16:00 +23°C° 0 mm 2 mps 750 mmHg 46%
    17:00 +23°C° 0 mm 2 mps 750 mmHg 49%
    18:00 +22°C° 0 mm 1 mps 750 mmHg 53%
    19:00 +21°C° 0 mm 1 mps 750 mmHg 56%
    20:00 +19°C° 0 mm 1 mps 750 mmHg 59%
    21:00 +16°C° 0 mm 1 mps 750 mmHg 63%
    22:00 +16°C° 0 mm 1 mps 750 mmHg 64%
    23:00 +15°C° 0 mm 1 mps 750 mmHg 65%

    25 August, Saturday

    Time Temperature Precipitation Wind Pressure Humidity
    00:00 +15°C° 0 mm 2 mps 750 mmHg 67%
    01:00 +14°C° 0 mm 2 mps 750 mmHg 68%
    02:00 +14°C° 0 mm 2 mps 750 mmHg 69%
    03:00 +14°C° 0 mm 2 mps 750 mmHg 70%
    04:00 +13°C° 0 mm 2 mps 750 mmHg 71%
    05:00 +13°C° 0 mm 2 mps 750 mmHg 72%
    06:00 +13°C° 0 mm 2 mps 750 mmHg 73%
    07:00 +15°C° 0 mm 2 mps 750 mmHg 68%
    08:00 +17°C° 0 mm 2 mps 750 mmHg 62%
    09:00 +19°C° 0 mm 3 mps 750 mmHg 57%
    10:00 +21°C° 0 mm 3 mps 750 mmHg 52%
    11:00 +22°C° 0 mm 3 mps 750 mmHg 48%
    12:00 +25°C° 0 mm 3 mps 750 mmHg 43%
    13:00 +25°C° 0 mm 3 mps 750 mmHg 43%
    14:00 +25°C° 0 mm 3 mps 749 mmHg 42%
    15:00 +26°C° 0 mm 3 mps 749 mmHg 42%
    16:00 +25°C° 0 mm 3 mps 749 mmHg 46%
    17:00 +25°C° 0 mm 2 mps 749 mmHg 50%
    18:00 +24°C° 0 mm 2 mps 748 mmHg 54%
    19:00 +21°C° 0 mm 2 mps 748 mmHg 57%
    20:00 +19°C° 0 mm 2 mps 749 mmHg 59%
    21:00 +18°C° 0 mm 2 mps 749 mmHg 62%
    22:00 +17°C° 0 mm 2 mps 749 mmHg 63%
    23:00 +17°C° 0 mm 2 mps 749 mmHg 64%

    26 August, Sunday

    Time Temperature Precipitation Wind Pressure Humidity
    00:00 +16°C° 0 mm 2 mps 749 mmHg 65%
    01:00 +16°C° 0 mm 2 mps 749 mmHg 67%
    02:00 +15°C° 0 mm 2 mps 749 mmHg 68%
    03:00 +15°C° 0 mm 2 mps 749 mmHg 69%
    04:00 +15°C° 0 mm 2 mps 749 mmHg 70%
    05:00 +14°C° 0 mm 2 mps 749 mmHg 71%
    06:00 +14°C° 0 mm 2 mps 749 mmHg 73%
    07:00 +16°C° 0 mm 2 mps 749 mmHg 68%
    08:00 +18°C° 0 mm 3 mps 750 mmHg 63%
    09:00 +20°C° 0 mm 3 mps 750 mmHg 59%
    10:00 +22°C° 0 mm 3 mps 750 mmHg 54%
    11:00 +25°C° 0 mm 3 mps 750 mmHg 49%
    12:00 +26°C° 0 mm 3 mps 749 mmHg 44%
    13:00 +27°C° 0 mm 3 mps 749 mmHg 43%
    14:00 +27°C° 0 mm 3 mps 749 mmHg 42%
    15:00 +28°C° 0 mm 3 mps 749 mmHg 41%
    16:00 +27°C° 0 mm 3 mps 749 mmHg 45%
    17:00 +26°C° 0 mm 2 mps 748 mmHg 50%
    18:00 +26°C° 0 mm 2 mps 748 mmHg 54%
    19:00 +24°C° 0 mm 2 mps 748 mmHg 57%
    20:00 +21°C° 0 mm 2 mps 749 mmHg 60%
    21:00 +19°C° 0 mm 2 mps 749 mmHg 63%
    22:00 +19°C° 0 mm 2 mps 749 mmHg 65%
    23:00 +18°C° 0 mm 2 mps 749 mmHg 67%
    Show more